Weather History for Liberal, KS

Change the Weather History Date:

Saturday, January 19, 2013

  Actual Average Record
Temperature  
Mean Temperature 42 °F -  
Max Temperature 60 °F 45 °F 70 °F (1953)
Min Temperature 24 °F 23 °F -15 °F (1943)
Degree Days  
Heating Degree Days 23    
Moisture  
Dew Point 19 °F    
Average Humidity 49    
Maximum Humidity 74    
Minimum Humidity 20    
Precipitation  
Precipitation 0.00 in - - ()
Sea Level Pressure  
Sea Level Pressure 30.15 in    
Wind  
Wind Speed 10 mph (NNW)    
Max Wind Speed 24 mph    
Max Gust Speed 30 mph    
Visibility 10 miles    
Events      
Averages and records for this station are not official NWS values.
T = Trace of Precipitation, MM = Missing Value Source: NWS Daily Summary

Daily Weather History Graph

Daily Weather History Graph

Search for Another Location

Airport:

Trip Planner

Search our weather history database for the weather conditions in past years. The results will help you decide how hot, cold, wet, or windy it might be!

Date:

Astronomy

Jan. 19, 2013 Rise Set
Actual Time 7:54 AM CST 5:55 PM CST
Civil Twilight 7:26 AM CST 6:23 PM CST
Nautical Twilight 6:54 AM CST 6:55 PM CST
Astronomical Twilight 6:23 AM CST 7:26 PM CST
Moon 12:20 PM CST (1/19) 1:32 AM CST (1/19)
Length of Visible Light 10h 56m
Length of Day
10h 00m
First Quarter, 57% of the Moon is Illuminated
Jan 19
First Quarter
Jan 26
Full
Feb 3
Last Quarter
Feb 10
New
Feb 17
First Quarter

Hourly Weather History & Observations

Time (CST) Temp. Windchill Dew Point Humidity Pressure Visibility Wind Dir Wind Speed Gust Speed Precip Events Conditions
12:15 AM 32.0 °F 24.8 °F 19.4 °F 60% 30.05 in 10.0 mi WSW 8.1 mph - N/A   Clear
12:35 AM 30.2 °F 26.7 °F 19.4 °F 64% 30.06 in 10.0 mi West 3.5 mph - N/A   Clear
12:55 AM 28.4 °F 21.2 °F 19.4 °F 69% 30.05 in 10.0 mi SW 6.9 mph - N/A   Clear
1:15 AM 26.6 °F 18.2 °F 17.6 °F 69% 30.05 in 10.0 mi SW 8.1 mph - N/A   Clear
1:35 AM 24.8 °F 16.9 °F 17.6 °F 74% 30.05 in 10.0 mi WSW 6.9 mph - N/A   Clear
1:55 AM 26.6 °F 20.0 °F 17.6 °F 69% 30.04 in 10.0 mi West 5.8 mph - N/A   Clear
2:15 AM 24.8 °F 17.9 °F 15.8 °F 69% 30.04 in 10.0 mi WNW 5.8 mph - N/A   Clear
2:35 AM 24.8 °F 16.9 °F 17.6 °F 74% 30.04 in 10.0 mi West 6.9 mph - N/A   Clear
2:55 AM 24.8 °F 17.9 °F 17.6 °F 74% 30.04 in 10.0 mi WNW 5.8 mph - N/A   Clear
3:15 AM 26.6 °F 20.0 °F 17.6 °F 69% 30.04 in 10.0 mi WSW 5.8 mph - N/A   Clear
3:35 AM 26.6 °F 18.2 °F 17.6 °F 69% 30.03 in 10.0 mi West 8.1 mph - N/A   Clear
3:55 AM 26.6 °F 16.2 °F 19.4 °F 74% 30.03 in 10.0 mi West 11.5 mph - N/A   Clear
4:15 AM 28.4 °F 22.2 °F 21.2 °F 74% 30.03 in 10.0 mi West 5.8 mph - N/A   Clear
4:35 AM 28.4 °F 18.5 °F 19.4 °F 69% 30.03 in 10.0 mi WNW 11.5 mph - N/A   Clear
4:55 AM 30.2 °F 21.3 °F 21.2 °F 69% 30.03 in 10.0 mi NW 10.4 mph - N/A   Clear
5:15 AM 30.2 °F 20.2 °F 21.2 °F 69% 30.04 in 10.0 mi NW 12.7 mph - N/A   Clear
5:35 AM 28.4 °F 19.1 °F 19.4 °F 69% 30.04 in 10.0 mi WNW 10.4 mph - N/A   Clear
5:55 AM 28.4 °F 19.1 °F 19.4 °F 69% 30.05 in 10.0 mi NW 10.4 mph - N/A   Clear
6:15 AM 28.4 °F 19.1 °F 17.6 °F 64% 30.06 in 10.0 mi NW 10.4 mph - N/A   Clear
6:35 AM 28.4 °F 19.7 °F 17.6 °F 64% 30.06 in 10.0 mi NW 9.2 mph - N/A   Clear
6:55 AM 28.4 °F 19.1 °F 17.6 °F 64% 30.07 in 10.0 mi NW 10.4 mph - N/A   Clear
7:15 AM 28.4 °F 19.1 °F 17.6 °F 64% 30.07 in 10.0 mi NW 10.4 mph - N/A   Clear
7:35 AM 28.4 °F 18.5 °F 17.6 °F 64% 30.08 in 10.0 mi NW 11.5 mph - N/A   Clear
7:55 AM 26.6 °F 15.7 °F 15.8 °F 64% 30.10 in 10.0 mi NW 12.7 mph - N/A   Clear
8:15 AM 26.6 °F 16.8 °F 15.8 °F 64% 30.11 in 10.0 mi NW 10.4 mph - N/A   Clear
8:35 AM 28.4 °F 18.0 °F 17.6 °F 64% 30.12 in 10.0 mi NW 12.7 mph - N/A   Clear
8:55 AM 32.0 °F 24.2 °F 19.4 °F 60% 30.13 in 10.0 mi NNW 9.2 mph - N/A   Clear
9:15 AM 35.6 °F 26.6 °F 21.2 °F 56% 30.14 in 10.0 mi NNW 13.8 mph - N/A   Partly Cloudy
9:35 AM 37.4 °F 29.3 °F 21.2 °F 52% 30.16 in 10.0 mi NNW 12.7 mph - N/A   Partly Cloudy
9:55 AM 42.8 °F 36.2 °F 23.0 °F 46% 30.17 in 10.0 mi NNW 12.7 mph - N/A   Clear
10:15 AM 46.4 °F 39.0 °F 26.6 °F 46% 30.18 in 10.0 mi North 19.6 mph - N/A   Clear
10:35 AM 48.2 °F - 26.6 °F 43% 30.19 in 10.0 mi North 21.9 mph - N/A   Clear
10:55 AM 50.0 °F - 24.8 °F 37% 30.20 in 10.0 mi NNW 21.9 mph 25.3 mph N/A   Clear
11:15 AM 51.8 °F - 24.8 °F 35% 30.20 in 10.0 mi NNW 19.6 mph - N/A   Clear
11:35 AM 53.6 °F - 24.8 °F 33% 30.19 in 10.0 mi North 21.9 mph 27.6 mph N/A   Clear
11:55 AM 55.4 °F - 24.8 °F 31% 30.19 in 10.0 mi North 24.2 mph - N/A   Clear
12:15 PM 55.4 °F - 23.0 °F 29% 30.19 in 10.0 mi North 20.7 mph 26.5 mph N/A   Clear
12:35 PM 57.2 °F - 23.0 °F 27% 30.18 in 10.0 mi North 21.9 mph - N/A   Clear
12:55 PM 57.2 °F - 24.8 °F 29% 30.17 in 10.0 mi North 24.2 mph 29.9 mph N/A   Clear
1:15 PM 59.0 °F - 24.8 °F 27% 30.17 in 10.0 mi North 24.2 mph 28.8 mph N/A   Clear
1:35 PM 60.8 °F - 23.0 °F 23% 30.17 in 10.0 mi North 21.9 mph 28.8 mph N/A   Clear
1:55 PM 59.0 °F - 23.0 °F 25% 30.16 in 10.0 mi NNE 18.4 mph - N/A   Clear
2:15 PM 60.8 °F - 23.0 °F 23% 30.17 in 10.0 mi North 20.7 mph - N/A   Clear
2:35 PM 60.8 °F - 23.0 °F 23% 30.17 in 10.0 mi North 20.7 mph 24.2 mph N/A   Clear
2:55 PM 60.8 °F - 21.2 °F 22% 30.18 in 10.0 mi NNE 20.7 mph 27.6 mph N/A   Clear
3:15 PM 60.8 °F - 21.2 °F 22% 30.17 in 10.0 mi NNE 18.4 mph - N/A   Clear
3:35 PM 60.8 °F - 21.2 °F 22% 30.18 in 10.0 mi NNE 21.9 mph - N/A   Clear
3:55 PM 60.8 °F - 21.2 °F 22% 30.18 in 10.0 mi NE 20.7 mph - N/A   Clear
4:15 PM 60.8 °F - 19.4 °F 20% 30.19 in 10.0 mi NNE 17.3 mph 20.7 mph N/A   Clear
4:35 PM 59.0 °F - 19.4 °F 22% 30.20 in 10.0 mi NNE 13.8 mph - N/A   Clear
4:55 PM 57.2 °F - 19.4 °F 23% 30.20 in 10.0 mi NNE 11.5 mph - N/A   Clear
5:15 PM 55.4 °F - 19.4 °F 25% 30.21 in 10.0 mi NNE 9.2 mph - N/A   Clear
5:35 PM 51.8 °F - 17.6 °F 26% 30.22 in 10.0 mi North 6.9 mph - N/A   Clear
5:55 PM 46.4 °F 42.9 °F 15.8 °F 29% 30.22 in 10.0 mi North 6.9 mph - N/A   Clear
6:15 PM 44.6 °F 40.7 °F 15.8 °F 31% 30.23 in 10.0 mi North 6.9 mph - N/A   Clear
6:35 PM 41.0 °F 37.1 °F 15.8 °F 36% 30.23 in 10.0 mi North 5.8 mph - N/A   Clear
6:55 PM 39.2 °F 35.9 °F 17.6 °F 42% 30.23 in 10.0 mi North 4.6 mph - N/A   Clear
7:15 PM 39.2 °F 35.9 °F 17.6 °F 42% 30.23 in 10.0 mi North 4.6 mph - N/A   Clear
7:35 PM 37.4 °F 34.9 °F 15.8 °F 41% 30.24 in 10.0 mi North 3.5 mph - N/A   Clear
7:55 PM 37.4 °F 34.9 °F 17.6 °F 45% 30.24 in 10.0 mi North 3.5 mph - N/A   Clear
8:15 PM 33.8 °F 29.6 °F 14.0 °F 44% 30.25 in 10.0 mi NNW 4.6 mph - N/A   Clear
8:35 PM 32.0 °F 28.7 °F 14.0 °F 48% 30.25 in 10.0 mi NNW 3.5 mph - N/A   Clear
8:55 PM 32.0 °F 28.7 °F 15.8 °F 51% 30.25 in 10.0 mi NNW 3.5 mph - N/A   Clear
9:15 PM 32.0 °F 28.7 °F 17.6 °F 55% 30.25 in 10.0 mi NNW 3.5 mph - N/A   Clear
9:35 PM 30.2 °F 25.4 °F 15.8 °F 55% 30.25 in 10.0 mi NNW 4.6 mph - N/A   Clear
9:55 PM 30.2 °F - 15.8 °F 55% 30.25 in 10.0 mi Calm Calm - N/A   Clear
10:15 PM 30.2 °F - 17.6 °F 60% 30.26 in 10.0 mi Calm Calm - N/A   Clear
10:35 PM 28.4 °F - 17.6 °F 64% 30.26 in 10.0 mi Calm Calm - N/A   Clear
10:55 PM 28.4 °F - 17.6 °F 64% 30.26 in 10.0 mi Calm Calm - N/A   Clear
11:15 PM 28.4 °F - 15.8 °F 59% 30.26 in 10.0 mi Calm Calm - N/A   Clear
11:35 PM 28.4 °F 22.2 °F 15.8 °F 59% 30.26 in 10.0 mi South 5.8 mph - N/A   Clear